GW0795 Weather Reports


Display with metric or nautical units.
time (UTC)temp
F
wind
direction
speed
MPH
gust
MPH
rain 1hr
in
rain 24hr
in
rain mn
in
humidity
%
barometer
mb
20260902165507 63 130 0.0 2.0 0.00 0.00 0.00 71 1006.2
20260902165004 62 183 0.0 2.0 0.00 0.00 0.00 72 1006.3
20260902164515 62 217 0.0 2.0 0.00 0.00 0.00 73 1006.4
20260902164010 62 180 0.0 2.0 0.00 0.00 0.00 72 1006.4
20260902163508 62 165 0.0 2.0 0.00 0.00 0.00 74 1006.5
20260902163018 62 201 0.0 2.0 0.00 0.00 0.00 74 1006.5
20260902162512 62 215 0.0 2.0 0.00 0.00 0.00 73 1006.5
20260902162012 63 189 0.0 5.0 0.00 0.00 0.00 73 1006.6
20260902161524 63 182 0.0 5.0 0.00 0.00 0.00 73 1006.6
20260902161016 62 186 0.0 3.0 0.00 0.00 0.00 75 1006.6
20260902160513 62 139 1.0 3.0 0.00 0.00 0.00 73 1006.7
20260902160033 63 207 1.0 3.0 0.00 0.00 0.00 75 1006.8
20260902155518 62 186 0.0 4.0 0.00 0.00 0.00 76 1006.8
20260902155015 62 157 0.0 4.0 0.00 0.00 0.00 76 1006.8
20260902154508 62 173 1.0 3.0 0.00 0.00 0.00 75 1006.9
20260902154006 62 94 0.0 3.0 0.00 0.00 0.00 76 1006.9
20260902153510 62 86 1.0 4.0 0.00 0.00 0.00 78 1007.1
20260902153016 61 94 2.0 4.0 0.00 0.00 0.00 77 1007.0
20260902152511 62 94 1.0 6.0 0.00 0.00 0.00 78 1007.1
20260902152010 61 62 2.0 6.0 0.00 0.00 0.00 78 1007.1
20260902151524 61 92 2.0 5.0 0.00 0.00 0.00 80 1007.2
20260902151011 60 128 1.0 3.0 0.00 0.00 0.00 81 1007.2
20260902150516 60 96 2.0 3.0 0.00 0.00 0.00 81 1007.2
20260902150027 60 79 1.0 4.0 0.00 0.00 0.00 82 1007.3
20260902145514 60 108 2.0 4.0 0.00 0.00 0.00 82 1007.4
20260902145013 60 78 2.0 4.0 0.00 0.00 0.00 81 1007.6
20260902144528 60 98 2.0 4.0 0.00 0.00 0.00 81 1007.6
20260902144018 59 96 1.0 3.0 0.00 0.00 0.00 82 1007.6
20260902143516 59 86 0.0 3.0 0.00 0.00 0.00 83 1007.7
20260902143015 58 127 0.0 2.0 0.00 0.00 0.00 84 1007.7
20260902142510 58 136 0.0 1.0 0.00 0.00 0.00 84 1007.8
20260902142009 57 136 0.0 2.0 0.00 0.00 0.00 86 1007.8
20260902141533 57 67 0.0 2.0 0.00 0.00 0.00 87 1007.9
20260902141015 56 347 0.0 0.0 0.00 0.00 0.00 88 1007.9
20260902140512 56 347 0.0 0.0 0.00 0.00 0.00 88 1007.9
20260902140029 56 347 0.0 0.0 0.00 0.00 0.00 89 1007.9
20260902135516 56 347 0.0 0.0 0.00 0.00 0.00 89 1007.8
20260902135014 55 347 0.0 0.0 0.00 0.00 0.00 89 1007.9
20260902134530 55 347 0.0 2.0 0.00 0.00 0.00 90 1007.9
20260902134015 55 347 0.0 2.0 0.00 0.00 0.00 89 1007.9
20260902133521 55 347 0.0 1.0 0.00 0.00 0.00 89 1007.9
20260902133031 55 347 0.0 1.0 0.00 0.00 0.00 89 1007.8
20260902132521 55 347 0.0 2.0 0.00 0.00 0.00 89 1007.6
20260902132018 56 229 0.0 2.0 0.00 0.00 0.00 88 1007.7
20260902131522 56 229 0.0 1.0 0.00 0.00 0.00 88 1007.8
20260902131012 56 229 0.0 4.0 0.00 0.00 0.00 87 1008.0
20260902130512 57 211 1.0 4.0 0.00 0.00 0.00 87 1008.1
20260902130023 57 103 0.0 0.0 0.00 0.00 0.00 88 1008.0
20260902125514 57 103 0.0 0.0 0.00 0.00 0.00 88 1008.2
20260902125016 57 103 0.0 0.0 0.00 0.00 0.00 87 1008.2
20260902124529 58 103 0.0 0.0 0.00 0.00 0.00 87 1008.2
20260902124015 58 103 0.0 0.0 0.00 0.00 0.00 87 1008.3
20260902123517 58 103 0.0 0.0 0.00 0.00 0.00 87 1008.3
20260902123032 58 103 0.0 0.0 0.00 0.00 0.00 88 1008.2
20260902122504 58 103 0.0 0.0 0.00 0.00 0.00 88 1008.2
20260902122003 58 103 0.0 0.0 0.00 0.00 0.00 88 1008.3
20260902121501 58 103 0.0 0.0 0.00 0.00 0.00 87 1008.4
20260902121001 58 103 0.0 0.0 0.00 0.00 0.00 87 1008.5
20260902120501 58 103 0.0 0.0 0.00 0.00 0.00 88 1008.5
20260902120001 58 103 0.0 0.0 0.00 0.00 0.00 88 1008.5
20260902115500 58 103 0.0 0.0 0.00 0.00 0.00 88 1008.6
20260902115000 58 103 0.0 0.0 0.00 0.00 0.00 88 1008.6
20260902114504 58 103 0.0 0.0 0.00 0.00 0.00 88 1008.7
20260902114003 58 103 0.0 0.0 0.00 0.00 0.00 88 1008.7
20260902113503 58 103 0.0 1.0 0.00 0.00 0.00 88 1008.7
20260902113003 58 103 0.0 1.0 0.00 0.00 0.00 89 1008.7
20260902112504 58 103 0.0 0.0 0.00 0.00 0.00 89 1008.8
20260902112004 58 103 0.0 2.0 0.00 0.00 0.00 90 1008.7
20260902111503 58 103 0.0 2.0 0.00 0.00 0.00 90 1008.8
20260902111006 57 103 0.0 2.0 0.00 0.00 0.00 91 1008.8
20260902110501 57 103 0.0 2.0 0.00 0.00 0.00 91 1008.8
20260902110006 57 182 0.0 0.0 0.00 0.00 0.00 91 1008.8
20260902105505 57 182 0.0 0.0 0.00 0.00 0.00 91 1008.9
20260902105002 57 182 0.0 0.0 0.00 0.00 0.00 92 1008.9
20260902104506 57 182 0.0 0.0 0.00 0.00 0.00 92 1009.0
20260902104004 57 182 0.0 0.0 0.00 0.00 0.00 92 1009.0
20260902103503 57 182 0.0 0.0 0.00 0.00 0.00 92 1009.0
20260902103002 56 182 0.0 0.0 0.00 0.00 0.00 91 1009.1
20260902102502 56 182 0.0 0.0 0.00 0.00 0.00 91 1009.2
20260902102002 56 182 0.0 0.0 0.00 0.00 0.00 91 1009.2
20260902101502 56 182 0.0 0.0 0.00 0.00 0.00 91 1009.3
20260902101003 57 182 0.0 0.0 0.00 0.00 0.00 91 1009.3
20260902100501 57 182 0.0 0.0 0.00 0.00 0.00 91 1009.3
20260902100004 57 182 0.0 0.0 0.00 0.00 0.00 91 1009.3
20260902095502 57 182 0.0 0.0 0.00 0.00 0.00 91 1009.3
20260902095002 57 182 0.0 0.0 0.00 0.00 0.00 90 1009.3
20260902094512 57 182 0.0 0.0 0.00 0.00 0.00 90 1009.3
20260902094001 57 182 0.0 0.0 0.00 0.00 0.00 90 1009.4
20260902093502 58 182 0.0 0.0 0.00 0.00 0.00 90 1009.3
20260902093002 58 197 0.0 1.0 0.00 0.00 0.00 89 1009.4
20260902092501 58 197 0.0 1.0 0.00 0.00 0.00 89 1009.4
20260902092004 58 196 0.0 1.0 0.00 0.00 0.00 89 1009.2
20260902091506 58 235 0.0 0.0 0.00 0.00 0.00 89 1009.3
20260902091001 58 235 0.0 0.0 0.00 0.00 0.00 89 1009.4
20260902090501 58 235 0.0 0.0 0.00 0.00 0.00 89 1009.4
20260902090005 58 235 0.0 0.0 0.00 0.00 0.00 89 1009.5
20260902085505 58 235 0.0 2.0 0.00 0.00 0.00 89 1009.6
20260902085008 58 235 0.0 2.0 0.00 0.00 0.00 89 1009.6
20260902084505 59 235 0.0 2.0 0.00 0.00 0.00 89 1009.7
20260902084002 59 226 0.0 2.0 0.00 0.00 0.00 89 1009.8
20260902083501 59 226 0.0 2.0 0.00 0.00 0.00 88 1009.9
20260902083010 59 162 0.0 5.0 0.00 0.00 0.00 88 1009.9
20260902082502 59 207 1.0 5.0 0.00 0.00 0.00 88 1009.9
20260902082002 59 190 0.0 4.0 0.00 0.00 0.00 87 1009.9
20260902081514 59 213 1.0 4.0 0.00 0.00 0.00 87 1009.9
20260902081007 59 135 0.0 2.0 0.00 0.00 0.00 87 1009.9
20260902080506 59 304 0.0 2.0 0.00 0.00 0.00 87 1009.9
20260902080010 59 157 1.0 2.0 0.00 0.00 0.00 86 1009.9
20260902075505 59 209 0.0 2.0 0.00 0.00 0.00 87 1009.9
20260902075005 59 193 0.0 1.0 0.00 0.00 0.00 87 1009.9
20260902074510 59 193 0.0 3.0 0.00 0.00 0.00 87 1009.9
20260902074007 59 193 0.0 3.0 0.00 0.00 0.00 87 1009.9
20260902073507 59 202 0.0 2.0 0.00 0.00 0.00 87 1010.0
20260902073012 59 202 0.0 2.0 0.00 0.00 0.00 88 1010.0
20260902072506 59 157 0.0 2.0 0.00 0.00 0.00 88 1010.0
20260902072006 59 204 0.0 1.0 0.00 0.00 0.00 88 1010.0
20260902071512 59 119 0.0 0.0 0.00 0.00 0.00 88 1010.1
20260902071003 59 119 0.0 0.0 0.00 0.00 0.00 88 1010.0
20260902070509 59 119 0.0 2.0 0.00 0.00 0.00 88 1010.0
20260902070008 59 119 0.0 2.0 0.00 0.00 0.00 88 1010.0
20260902065506 59 114 0.0 4.0 0.00 0.00 0.00 88 1010.1
20260902065009 59 115 0.0 4.0 0.00 0.00 0.00 88 1010.1
20260902064509 59 182 0.0 2.0 0.00 0.00 0.00 87 1010.2
20260902064005 59 178 0.0 0.0 0.00 0.00 0.00 87 1010.2
20260902063505 59 194 0.0 0.0 0.00 0.00 0.00 87 1010.2
20260902063014 59 194 0.0 0.0 0.00 0.00 0.00 86 1010.3
20260902062508 59 195 0.0 2.0 0.00 0.00 0.00 86 1010.3
20260902062007 59 184 0.0 2.0 0.00 0.00 0.00 86 1010.3
20260902061512 59 173 0.0 2.0 0.00 0.00 0.00 86 1010.2
20260902061007 59 174 1.0 2.0 0.00 0.00 0.00 86 1010.3
20260902060507 59 204 0.0 1.0 0.00 0.00 0.00 87 1010.3
20260902060018 59 186 0.0 1.0 0.00 0.00 0.00 87 1010.2
20260902055509 59 198 0.0 0.0 0.00 0.00 0.00 87 1010.2
20260902055006 59 202 0.0 0.0 0.00 0.00 0.00 87 1010.2
20260902054513 59 202 0.0 0.0 0.00 0.00 0.00 86 1010.4
20260902054007 59 202 0.0 2.0 0.00 0.00 0.00 86 1010.4
20260902053507 59 202 0.0 2.0 0.00 0.00 0.00 86 1010.4
20260902053027 59 211 0.0 2.0 0.00 0.00 0.00 85 1010.5
20260902052512 59 168 0.0 2.0 0.00 0.00 0.00 85 1010.6
20260902052012 59 164 0.0 4.0 0.00 0.00 0.00 85 1010.6
20260902051515 60 219 0.0 7.0 0.00 0.00 0.00 85 1010.6
20260902051012 59 185 1.0 7.0 0.00 0.00 0.00 86 1010.6
20260902050510 60 194 2.0 7.0 0.00 0.00 0.00 86 1010.5
20260902050015 60 202 0.0 7.0 0.00 0.00 0.00 87 1010.6
20260902045511 60 188 0.0 3.0 0.00 0.00 0.00 88 1010.6
20260902045010 59 200 1.0 5.0 0.00 0.00 0.00 88 1010.6
20260902044518 59 196 2.0 5.0 0.00 0.00 0.00 89 1010.6
20260902044008 59 205 0.0 4.0 0.00 0.00 0.00 89 1010.7
20260902043507 59 200 1.0 4.0 0.00 0.00 0.00 90 1010.7
20260902043013 59 98 0.0 0.0 0.00 0.00 0.00 90 1010.7
20260902042509 59 98 0.0 0.0 0.00 0.00 0.00 89 1010.7
20260902042009 60 98 0.0 0.0 0.00 0.00 0.00 89 1010.7
20260902041517 60 98 0.0 0.0 0.00 0.00 0.00 89 1010.7
20260902041010 60 98 0.0 0.0 0.00 0.00 0.00 90 1010.7
20260902040513 60 98 0.0 1.0 0.00 0.00 0.00 89 1010.7
20260902040015 60 98 0.0 1.0 0.00 0.00 0.00 89 1010.8
20260902035509 60 84 0.0 2.0 0.00 0.00 0.00 90 1010.7
20260902035010 59 84 0.0 2.0 0.00 0.00 0.00 90 1010.8
20260902034518 59 86 0.0 0.0 0.00 0.00 0.00 90 1010.7
20260902034011 59 163 0.0 0.0 0.00 0.00 0.00 90 1010.7
20260902033510 59 170 0.0 0.0 0.00 0.00 0.00 90 1010.7
20260902033030 59 170 0.0 0.0 0.00 0.00 0.00 90 1010.6
20260902032509 59 172 0.0 0.0 0.00 0.00 0.00 90 1010.6
20260902032011 59 183 0.0 0.0 0.00 0.00 0.00 90 1010.6
20260902031518 59 186 0.0 0.0 0.00 0.00 0.00 90 1010.6
20260902031009 59 219 0.0 3.0 0.00 0.00 0.00 89 1010.5
20260902030509 59 184 0.0 3.0 0.00 0.00 0.00 89 1010.4
20260902030019 59 160 0.0 3.0 0.00 0.00 0.00 88 1010.4
20260902025512 59 202 1.0 4.0 0.00 0.00 0.00 88 1010.4
20260902025010 59 213 0.0 4.0 0.00 0.00 0.00 87 1010.4
20260902024523 59 199 1.0 8.0 0.00 0.00 0.00 86 1010.4
20260902024012 60 216 2.0 8.0 0.00 0.00 0.00 84 1010.5
20260902023511 61 188 2.0 8.0 0.00 0.00 0.00 81 1010.5
20260902023025 62 191 2.0 6.0 0.00 0.00 0.00 78 1010.6
20260902022514 62 221 2.0 9.0 0.00 0.00 0.00 76 1010.4
20260902022012 62 200 2.0 9.0 0.00 0.00 0.00 78 1010.2
20260902021529 63 214 1.0 7.0 0.00 0.00 0.00 79 1010.2
20260902021012 63 215 1.0 3.0 0.00 0.00 0.00 78 1010.2
20260902020511 63 333 0.0 3.0 0.00 0.00 0.00 78 1010.2
20260902020022 63 236 0.0 7.0 0.00 0.00 0.00 78 1010.2
20260902015514 63 227 1.0 7.0 0.00 0.00 0.00 78 1010.2
20260902015012 63 198 2.0 7.0 0.00 0.00 0.00 78 1010.2
20260902014534 63 209 1.0 5.0 0.00 0.00 0.00 78 1010.2
20260902014017 63 192 1.0 4.0 0.00 0.00 0.00 78 1010.2
20260902013514 63 188 1.0 6.0 0.00 0.00 0.00 77 1010.1
20260902013026 63 211 2.0 6.0 0.00 0.00 0.00 77 1010.1
20260902012512 63 246 0.0 4.0 0.00 0.00 0.00 77 1010.1
20260902012011 63 204 1.0 2.0 0.00 0.00 0.00 77 1010.1
20260902011534 63 216 1.0 3.0 0.00 0.00 0.00 77 1010.1
20260902011015 63 230 0.0 5.0 0.00 0.00 0.00 77 1010.2
20260902010513 63 331 2.0 8.0 0.00 0.00 0.00 78 1010.2
20260902010041 63 180 2.0 8.0 0.00 0.00 0.00 78 1010.2
20260902005512 63 211 1.0 5.0 0.00 0.00 0.00 78 1010.2
20260902005013 63 169 2.0 6.0 0.00 0.00 0.00 78 1010.2
20260902004529 63 207 2.0 7.0 0.00 0.00 0.00 77 1010.3
20260902004016 63 205 2.0 7.0 0.00 0.00 0.00 76 1010.2
20260902003515 63 183 3.0 7.0 0.00 0.00 0.00 76 1010.2
20260902003029 64 215 1.0 4.0 0.00 0.00 0.00 76 1010.2
20260902002504 64 214 1.0 7.0 0.00 0.00 0.00 75 1010.2
20260902002006 63 148 0.0 7.0 0.00 0.00 0.00 77 1010.3
20260902001512 63 159 0.0 7.0 0.00 0.00 0.00 78 1010.3
20260902001005 63 204 3.0 6.0 0.00 0.00 0.00 78 1010.2
20260902000511 63 180 2.0 7.0 0.00 0.00 0.00 78 1010.3
20260902000012 63 207 3.0 8.0 0.00 0.00 0.00 78 1010.2
20260901235512 63 192 3.0 8.0 0.00 0.00 0.00 78 1010.2
20260901235001 63 204 3.0 7.0 0.00 0.00 0.00 76 1010.3
20260901234503 64 214 1.0 6.0 0.00 0.00 0.00 76 1010.3
20260901234001 64 215 1.0 5.0 0.00 0.00 0.00 75 1010.2
20260901233501 64 192 1.0 7.0 0.00 0.00 0.00 75 1010.2
20260901233004 64 215 2.0 8.0 0.00 0.00 0.00 75 1010.2
20260901232502 64 214 2.0 8.0 0.00 0.00 0.00 75 1010.2
20260901232008 64 200 2.0 5.0 0.00 0.00 0.00 75 1010.2
20260901231510 65 171 1.0 5.0 0.00 0.00 0.00 75 1010.2
20260901231005 64 186 1.0 5.0 0.00 0.00 0.00 77 1010.2
20260901230505 63 204 1.0 7.0 0.00 0.00 0.00 77 1010.2
20260901230010 63 214 4.0 7.0 0.00 0.00 0.00 77 1010.2
20260901225509 63 234 2.0 8.0 0.00 0.00 0.00 77 1010.3
20260901225013 63 228 2.0 8.0 0.00 0.00 0.00 77 1010.3
20260901224525 63 165 2.0 7.0 0.00 0.00 0.00 76 1010.3
20260901224012 63 193 1.0 7.0 0.00 0.00 0.00 76 1010.2
20260901223502 64 223 4.0 7.0 0.00 0.00 0.00 75 1010.3
20260901223001 64 197 2.0 6.0 0.00 0.00 0.00 74 1010.3
20260901222507 64 219 1.0 6.0 0.00 0.00 0.00 74 1010.3
20260901222004 65 202 1.0 4.0 0.00 0.00 0.00 73 1010.4
20260901221516 65 164 1.0 4.0 0.00 0.00 0.00 74 1010.4
20260901221006 64 205 1.0 6.0 0.00 0.00 0.00 75 1010.4
20260901220505 64 197 1.0 5.0 0.00 0.00 0.00 75 1010.5
20260901220010 64 198 2.0 4.0 0.00 0.00 0.00 74 1010.4
20260901215505 64 194 1.0 2.0 0.00 0.00 0.00 74 1010.4
20260901215010 65 232 0.0 2.0 0.00 0.00 0.00 73 1010.4
20260901214514 65 257 1.0 2.0 0.00 0.00 0.00 73 1010.4
20260901214009 65 155 1.0 3.0 0.00 0.00 0.00 73 1010.4
20260901213513 65 216 1.0 5.0 0.00 0.00 0.00 72 1010.4
20260901213022 66 268 1.0 5.0 0.00 0.00 0.00 72 1010.4
20260901212513 65 236 0.0 3.0 0.00 0.00 0.00 72 1010.4
20260901212001 65 220 1.0 3.0 0.00 0.00 0.00 72 1010.4
20260901211509 65 229 1.0 4.0 0.00 0.00 0.00 73 1010.4
20260901211004 65 211 1.0 4.0 0.00 0.00 0.00 72 1010.4
20260901210506 65 266 1.0 4.0 0.00 0.00 0.00 72 1010.5
20260901210006 65 131 1.0 7.0 0.00 0.00 0.00 73 1010.6
20260901205506 65 229 1.0 7.0 0.00 0.00 0.00 73 1010.6
20260901205006 65 194 0.0 3.0 0.00 0.00 0.00 74 1010.6
20260901204515 64 215 2.0 5.0 0.00 0.00 0.00 73 1010.6
20260901204010 64 182 2.0 6.0 0.00 0.00 0.00 74 1010.7
20260901203510 64 208 1.0 6.0 0.00 0.00 0.00 73 1010.7
20260901203023 65 186 2.0 6.0 0.00 0.00 0.00 73 1010.7
20260901202514 65 332 1.0 6.0 0.00 0.00 0.00 72 1010.7
20260901202012 65 195 1.0 6.0 0.00 0.00 0.00 73 1010.6
20260901201524 65 248 1.0 5.0 0.00 0.00 0.00 73 1010.7
20260901201012 64 206 1.0 4.0 0.00 0.00 0.00 73 1010.7
20260901200506 64 158 1.0 5.0 0.00 0.00 0.00 73 1010.8
20260901200016 64 188 2.0 5.0 0.00 0.00 0.00 73 1010.7
20260901195506 65 190 1.0 3.0 0.00 0.00 0.00 72 1010.8
20260901195007 65 205 1.0 4.0 0.00 0.00 0.00 72 1010.7
20260901194508 66 177 1.0 4.0 0.00 0.00 0.00 71 1010.7
20260901194009 66 221 0.0 4.0 0.00 0.00 0.00 70 1010.7
20260901193510 66 200 0.0 4.0 0.00 0.00 0.00 71 1010.7
20260901193016 66 205 0.0 3.0 0.00 0.00 0.00 71 1010.7
20260901192514 66 238 0.0 7.0 0.00 0.00 0.00 70 1010.7
20260901192014 65 234 1.0 7.0 0.00 0.00 0.00 72 1010.7
20260901191526 66 215 1.0 5.0 0.00 0.00 0.00 72 1010.7
20260901191021 65 215 0.0 5.0 0.00 0.00 0.00 73 1010.7
20260901190514 65 225 1.0 5.0 0.00 0.00 0.00 73 1010.8
20260901190033 65 309 1.0 5.0 0.00 0.00 0.00 73 1010.8
20260901185516 65 206 1.0 4.0 0.00 0.00 0.00 74 1010.9
20260901185005 64 214 1.0 5.0 0.00 0.00 0.00 74 1010.9
20260901184508 64 194 3.0 5.0 0.00 0.00 0.00 74 1011.0
20260901184008 64 213 2.0 6.0 0.00 0.00 0.00 74 1010.9
20260901183508 64 197 1.0 9.0 0.00 0.00 0.00 74 1010.9
20260901183032 64 158 3.0 9.0 0.00 0.00 0.00 73 1010.9
20260901182508 65 202 2.0 8.0 0.00 0.00 0.00 73 1010.8
20260901182011 64 200 2.0 8.0 0.00 0.00 0.00 75 1010.8
20260901181520 64 171 2.0 5.0 0.00 0.00 0.00 73 1010.8
20260901181011 64 220 1.0 5.0 0.00 0.00 0.00 75 1010.8
20260901180512 63 140 1.0 4.0 0.00 0.00 0.00 76 1010.8
20260901180028 62 203 2.0 4.0 0.00 0.00 0.00 77 1010.8
20260901175519 62 184 2.0 5.0 0.00 0.00 0.00 78 1010.7
20260901175013 62 210 2.0 5.0 0.00 0.00 0.00 77 1010.7
20260901174530 62 117 2.0 4.0 0.00 0.00 0.00 77 1010.7
20260901174007 63 224 1.0 8.0 0.00 0.00 0.00 76 1010.6
20260901173507 63 124 2.0 8.0 0.00 0.00 0.00 77 1010.5
20260901173008 63 149 2.0 7.0 0.00 0.00 0.00 75 1010.4
20260901172511 63 148 2.0 7.0 0.00 0.00 0.00 76 1010.4
20260901172008 63 191 2.0 5.0 0.00 0.00 0.00 77 1010.4
20260901171518 62 227 2.0 5.0 0.00 0.00 0.00 79 1010.5
20260901171010 61 203 2.0 5.0 0.00 0.00 0.00 79 1010.4
20260901170514 61 195 1.0 4.0 0.00 0.00 0.00 80 1010.6
20260901170023 61 127 1.0 4.0 0.00 0.00 0.00 81 1010.5